* Astronomy

Members Login
Username 
 
Password 
    Remember Me  
Post Info TOPIC: Asteroid 2012 HP15


L

Posts: 131433
Date:
Asteroid 2012 HP15
Permalink  
 


Orbital elements:
2012 HP15                                                Earth MOID = 0.1649 AU
Epoch 2012 Mar. 14.0 TT = JDT 2456000.5                 MPC
M 252.25714              (2000.0)            P               Q
n   0.79260036     Peri.  129.72733     +0.83535288     +0.51877440
a   1.1563781      Node   201.11015     -0.51148057     +0.85470256
e   0.3634956      Incl.   30.32004     +0.20142788     +0.01888547
P   1.24           H   21.7           G   0.15           U   9

MPEC 2012 - H63



__________________
Page 1 of 1  sorted by
 
Quick Reply

Please log in to post quick replies.



Create your own FREE Forum
Report Abuse
Powered by ActiveBoard